Weather History for Inverness, United Kingdom

Change the Weather History Date:

Monday, April 22, 2013

  Actual Average Record
Temperature  
Mean Temperature 48 °F -  
Max Temperature 55 °F 54 °F 69 °F (2011)
Min Temperature 41 °F 40 °F 28 °F (2009)
Degree Days  
Heating Degree Days 17    
Moisture  
Dew Point 39 °F    
Average Humidity 73    
Maximum Humidity 87    
Minimum Humidity 51    
Precipitation  
Precipitation 0.00 in - - ()
Sea Level Pressure  
Sea Level Pressure 29.53 in    
Wind  
Wind Speed 18 mph ()    
Max Wind Speed 33 mph    
Max Gust Speed 44 mph    
Visibility 6.2 miles    
Events Rain    
Averages and records for this station are not official NWS values.
T = Trace of Precipitation, MM = Missing Value Source: Averaged Metar Reports

Daily Weather History Graph

Daily Weather History Graph

Search for Another Location

Airport:

Trip Planner

Search our weather history database for the weather conditions in past years. The results will help you decide how hot, cold, wet, or windy it might be!

Date:

Astronomy

Apr. 22, 2013 Rise Set
Actual Time 5:48 AM BST 8:42 PM BST
Civil Twilight 5:03 AM BST 9:27 PM BST
Nautical Twilight 4:04 AM BST 10:27 PM BST
Astronomical Twilight 2:41 AM BST 11:53 PM BST
Moon 4:37 PM BST (4/22) 4:20 AM BST (4/22)
Length of Visible Light 16h 23m
Length of Day
14h 54m
Waxing Gibbous, 86% of the Moon is Illuminated
Apr 22
Waxing Gibbous
Apr 25
Full
May 2
Last Quarter
May 10
New
May 18
First Quarter

Hourly Weather History & Observations

Time (BST) Temp. Windchill Dew Point Humidity Pressure Visibility Wind Dir Wind Speed Gust Speed Precip Events Conditions
12:20 AM 41.0 °F 34.3 °F 35.6 °F 81% 29.71 in 6.2 mi SW 11.5 mph - N/A   Unknown
12:50 AM 41.0 °F 33.1 °F 35.6 °F 81% 29.71 in 6.2 mi SW 15.0 mph - N/A   Partly Cloudy
1:20 AM 41.0 °F 33.9 °F 35.6 °F 81% 29.71 in 6.2 mi SW 12.7 mph - N/A   Unknown
1:50 AM 41.0 °F 33.5 °F 35.6 °F 81% 29.71 in 6.2 mi SW 13.8 mph - N/A   Unknown
2:20 AM 41.0 °F 34.3 °F 37.4 °F 87% 29.68 in 6.2 mi SW 11.5 mph - N/A   Unknown
2:50 AM 41.0 °F 32.8 °F 37.4 °F 87% 29.68 in 6.2 mi SW 16.1 mph - N/A   Partly Cloudy
3:20 AM 41.0 °F 33.1 °F 37.4 °F 87% 29.68 in 6.2 mi WSW 15.0 mph - N/A   Unknown
3:50 AM 41.0 °F 33.9 °F 37.4 °F 87% 29.68 in 6.2 mi SW 12.7 mph - N/A   Partly Cloudy
4:20 AM 41.0 °F 33.1 °F 37.4 °F 87% 29.68 in 6.2 mi SW 15.0 mph - N/A   Unknown
4:50 AM 42.8 °F 35.4 °F 37.4 °F 81% 29.65 in 6.2 mi SW 15.0 mph - N/A   Unknown
5:20 AM 42.8 °F 35.1 °F 37.4 °F 81% 29.62 in 6.2 mi SW 16.1 mph - N/A   Unknown
5:50 AM 42.8 °F 36.2 °F 37.4 °F 81% 29.59 in 6.2 mi SW 12.7 mph - N/A   Unknown
6:20 AM 42.8 °F 34.8 °F 37.4 °F 81% 29.59 in 6.2 mi SW 17.3 mph - N/A   Partly Cloudy
6:50 AM 44.6 °F 37.2 °F 37.4 °F 76% 29.56 in 6.2 mi SW 17.3 mph - N/A   Partly Cloudy
7:20 AM 44.6 °F 36.4 °F 39.2 °F 81% 29.53 in 6.2 mi SW 20.7 mph 33.4 mph N/A   Scattered Clouds
7:50 AM 46.4 °F 38.5 °F 39.2 °F 76% 29.53 in 6.2 mi SW 21.9 mph - N/A   Mostly Cloudy
8:20 AM 48.2 °F - 41.0 °F 76% 29.47 in 6.2 mi SW 23.0 mph - N/A   Mostly Cloudy
8:50 AM 50.0 °F - 41.0 °F 71% 29.47 in 6.2 mi SW 24.2 mph - N/A   Mostly Cloudy
9:20 AM 50.0 °F - 41.0 °F 71% 29.42 in 6.2 mi SW 26.5 mph - N/A   Scattered Clouds
9:50 AM 50.0 °F - 41.0 °F 71% 29.42 in 6.2 mi SW 32.2 mph - N/A   Scattered Clouds
10:20 AM 51.8 °F - 42.8 °F 71% 29.42 in 6.2 mi SW 31.1 mph - N/A   Scattered Clouds
10:50 AM 51.8 °F - 42.8 °F 71% 29.42 in 6.2 mi SW 33.4 mph - N/A   Scattered Clouds
11:20 AM 53.6 °F - 42.8 °F 67% 29.39 in 6.2 mi SW 33.4 mph - N/A   Scattered Clouds
11:50 AM 55.4 °F - 44.6 °F 67% 29.39 in 6.2 mi SW 32.2 mph 43.7 mph N/A   Scattered Clouds
12:20 PM 53.6 °F - 44.6 °F 72% 29.42 in 6.2 mi SW 27.6 mph 41.4 mph N/A Rain Light Rain
12:50 PM 53.6 °F - 42.8 °F 67% 29.42 in 6.2 mi West 23.0 mph - N/A Rain Light Rain
1:20 PM 53.6 °F - 41.0 °F 62% 29.44 in 6.2 mi WSW 24.2 mph - N/A   Mostly Cloudy
1:50 PM 55.4 °F - 39.2 °F 54% 29.44 in 6.2 mi WSW 25.3 mph - N/A   Mostly Cloudy
2:20 PM 55.4 °F - 37.4 °F 51% 29.44 in 6.2 mi WSW 28.8 mph - N/A   Mostly Cloudy
2:50 PM 55.4 °F - 39.2 °F 54% 29.44 in 6.2 mi West 28.8 mph - N/A   Scattered Clouds
3:20 PM 51.8 °F - 41.0 °F 67% 29.44 in 6.2 mi West 25.3 mph - N/A Rain Light Rain Showers
3:50 PM 53.6 °F - 39.2 °F 58% 29.47 in 6.2 mi WSW 25.3 mph - N/A   Scattered Clouds
4:20 PM 53.6 °F - 39.2 °F 58% 29.47 in 6.2 mi WSW 25.3 mph - N/A   Scattered Clouds
4:50 PM 50.0 °F - 41.0 °F 71% 29.47 in 6.2 mi West 26.5 mph 38.0 mph N/A Rain Light Rain Showers
5:20 PM 50.0 °F - 41.0 °F 71% 29.50 in 6.2 mi WSW 21.9 mph - N/A Rain Light Rain Showers
5:50 PM 48.2 °F - 41.0 °F 76% 29.50 in 6.2 mi WSW 24.2 mph - N/A   Scattered Clouds
6:20 PM 50.0 °F - 39.2 °F 66% 29.50 in 6.2 mi WSW 19.6 mph - N/A   Scattered Clouds
6:50 PM 50.0 °F - 39.2 °F 66% 29.50 in 6.2 mi WSW 21.9 mph - N/A   Scattered Clouds
7:20 PM 50.0 °F - 37.4 °F 62% 29.50 in 6.2 mi WSW 23.0 mph - N/A   Scattered Clouds
7:50 PM 48.2 °F - 39.2 °F 71% 29.53 in 6.2 mi WSW 23.0 mph - N/A   Scattered Clouds
8:20 PM 46.4 °F 38.7 °F 39.2 °F 76% 29.53 in 6.2 mi WSW 20.7 mph - N/A   Scattered Clouds
8:50 PM 46.4 °F 38.3 °F 39.2 °F 76% 29.53 in 6.2 mi WSW 23.0 mph - N/A   Scattered Clouds
9:20 PM 46.4 °F 38.7 °F 35.6 °F 66% 29.53 in 6.2 mi WSW 20.7 mph - N/A   Partly Cloudy
9:50 PM 46.4 °F 38.3 °F 39.2 °F 76% 29.56 in 6.2 mi WSW 23.0 mph - N/A   Scattered Clouds
10:20 PM 44.6 °F 36.6 °F 39.2 °F 81% 29.56 in 6.2 mi WSW 19.6 mph - N/A   Unknown
10:50 PM 46.4 °F 39.5 °F 37.4 °F 71% 29.59 in 6.2 mi WSW 17.3 mph - N/A   Unknown
11:20 PM 46.4 °F 39.8 °F 37.4 °F 71% 29.56 in 6.2 mi WSW 16.1 mph - N/A   Scattered Clouds
11:50 PM 44.6 °F 37.4 °F 39.2 °F 81% 29.56 in 6.2 mi WSW 16.1 mph - N/A   Unknown